sat.trackr.live / text

‹ back to catalog

HULIANWANG DIGUI-136

NORAD 67244 · 2025-311J

PAYLOAD ACTIVE UNKNOWN

§ Identity

Operator
Country
PRC
Launch date
2025-12-25
Launch site
WSC
Launch vehicle
Mass (kg)
RCS (m²)

External: N2YO · Heavens-Above · Gunter

§ Orbital elements

Epoch: 2026-09-20T00:07:00.486336Z

Period
108.33 min
Inclination
50.0082°
Eccentricity
0.0000216
Mean motion
13.29328110 rev/d
Perigee alt
1,149.1 km
Apogee alt
1,149.5 km
Semi-major
7,527.4 km
B*
5.7559e-5
RAAN
135.6771°
Arg perigee
1.4182°
Mean anomaly
358.6691°
Rev number
3,595

§ Raw data

HULIANWANG DIGUI-1361 67244U 25311J   26263.00486674 -.00000097  00000+0  57559-4 0  99902 67244  50.0082 135.6771 0000216   1.4182 358.6691 13.29328110 35955

JSON: /api/v1/satellites/67244 · /tle

For live sub-satellite position, see the globe view (requires WebGL).

§ Visibility from observer

Set your observer location to see the next 7 days of passes ≥ 10°. The values pass through the URL so the page stays shareable.

No JS? Fill the form by hand. The geolocation button needs JavaScript.